Temperature
19 19 19 19 19 19 18 18 18 18 17 17 17 17 17 17 16 17 16 16 16 16 16 16 16 16 16 16 16 16 16 16 16 16 15 15 15 14 14 14 14 14 14
19 19 19 19 18 18 18 18 18 18 17 17 17 17 17 16 16 16 16 16 16 15 15 15 15 15 15 15 15 15 15 15 15 15 15 15 14 14 14 14 14 14 14
19 19 19 18 18 18 18 18 18 17 17 17 17 17 16 16 16 16 16 16 15 15 15 15 15 15 15 15 15 15 15 15 15 15 15 14 14 14 14 14 13 14 13
19 18 18 18 18 18 18 17 17 17 17 17 17 16 16 16 16 16 16 15 15 15 15 15 15 15 15 15 15 15 15 15 14 14 14 14 14 14 13 13 13 13 13
18 18 18 18 18 17 17 17 17 17 17 16 16 16 16 16 16 16 15 15 15 15 15 15 14 15 15 15 14 14 14 14 14 14 14 14 14 13 13 13 13 13 13
18 18 18 17 17 17 17 17 17 17 16 16 16 16 16 16 16 16 16 15 15 15 15 14 15 14 15 15 15 14 14 14 14 14 14 14 13 13 13 13 13 13 13
18 18 18 17 17 17 17 17 17 16 16 16 16 16 15 16 16 16 15 15 15 15 14 14 14 14 14 14 14 14 14 14 14 13 13 13 13 13 13 13 13 13 13
18 18 17 17 17 17 17 17 17 16 16 16 16 16 15 15 16 16 15 15 15 14 14 14 14 14 14 14 14 14 13 13 13 13 13 13 13 13 12 12 12 12 12
17 17 17 17 17 17 17 17 16 16 16 16 16 16 15 16 16 16 15 15 14 14 14 14 14 14 14 14 13 13 13 13 13 13 13 13 13 13 12 12 12 12 12
17 17 17 17 17 16 16 16 16 16 16 16 16 15 15 15 15 15 15 15 14 14 14 14 14 14 13 14 13 13 13 13 13 12 13 13 12 12 12 12 12 12 12
17 17 17 17 16 16 16 16 16 16 16 16 15 15 15 15 15 15 15 15 14 14 14 14 13 14 13 13 13 13 13 12 12 12 12 12 12 12 12 12 12 12 12
17 17 17 17 16 16 16 16 16 16 15 15 15 15 15 15 15 15 15 15 14 14 14 13 13 13 13 13 13 13 13 12 12 12 12 12 12 12 12 11 11 11 11
17 17 17 16 16 16 16 16 15 15 15 15 15 15 15 15 15 15 15 15 14 14 13 13 13 13 13 13 12 12 12 12 12 12 12 12 12 12 11 11 11 11 11
17 16 16 16 16 16 15 15 15 15 15 15 15 15 15 15 14 14 14 14 14 13 13 13 13 13 13 12 12 12 12 12 12 12 12 12 12 11 11 11 11 11 11
16 16 16 16 16 15 15 15 15 15 15 15 15 15 14 14 14 14 14 14 13 13 13 13 12 12 12 12 12 12 11 11 11 11 11 11 11 11 11 11 11 11 11
15 15 15 15 15 15 15 15 15 15 15 15 15 14 14 14 14 14 14 13 13 13 13 12 12 12 12 12 12 12 11 11 11 11 11 11 11 11 11 10 10 10 10
15 15 15 15 15 15 15 15 15 15 15 15 14 14 14 14 14 14 13 13 13 13 12 12 12 12 12 12 12 11 11 11 11 11 11 11 10 10 10 10 10 10 10
15 15 15 14 15 15 15 14 14 14 14 14 14 14 14 14 13 13 13 13 13 13 12 12 12 12 12 11 11 11 11 11 11 10 10 10 10 10 10 10 10 10 10
14 14 14 14 14 14 14 14 14 14 14 14 14 14 13 13 13 13 12 12 12 12 12 12 12 11 11 11 11 11 10 10 10 10 10 10 10 10 10 10 10 10 10
14 14 13 13 14 14 14 14 14 14 14 14 13 13 13 13 13 12 12 12 12 12 12 12 11 11 11 11 10 10 10 10 10 10 10 10 10 10 10 10 10 10 10
13 13 13 13 13 14 14 13 13 13 14 13 13 13 13 12 12 12 12 12 11 11 11 11 11 11 10 10 10 10 10 10 10 10 9 9 9 9 9 9 9 9 9
13 13 13 13 13 13 13 13 13 13 13 13 13 13 12 12 12 12 12 11 11 11 11 11 11 10 10 10 10 10 10 10 9 9 9 9 9 9 9 9 9 9 9
13 13 13 13 13 13 13 13 13 13 13 12 12 12 12 11 11 11 11 11 10 10 10 10 10 10 10 9 9 9 9 9 9 9 8 8 8 8 8 8 8 8 8
12 12 12 13 12 12 12 12 12 12 12 12 12 12 11 11 11 11 10 10 10 10 10 10 10 9 9 9 9 9 9 9 8 8 8 8 8 8 8 8 8 8 8
12 12 12 12 12 12 12 12 12 12 12 12 11 11 11 11 10 10 10 10 10 10 9 9 9 9 9 9 9 8 8 8 8 8 8 7 7 7 7 7 7 7 7
12 12 12 12 12 12 12 12 11 11 11 11 11 10 10 10 10 10 10 10 9 9 9 9 9 9 8 8 8 8 8 8 8 8 7 7 7 7 7 7 7 7 7
Wind_Speed
8 7 7 7 7 6 5 5 4 4 4 4 4 3 3 2 2 1 1 1 2 2 2 2 2 3 3 3 3 3 3 3 4 3 2 1 2 2 1 2 2 2 3
8 8 7 7 6 6 6 5 5 5 5 4 4 3 3 2 2 2 2 2 2 2 2 2 2 2 2 3 3 3 3 4 4 4 2 2 2 2 2 2 2 1 1
8 8 7 7 7 6 6 5 5 5 5 4 4 3 3 3 3 3 3 3 3 3 3 3 3 3 3 2 3 4 4 4 4 4 3 2 2 2 2 2 2 1 1
8 8 7 6 6 5 5 5 5 5 5 4 4 4 3 3 3 3 3 3 3 3 3 3 3 3 3 3 3 3 3 3 3 4 4 3 3 3 3 3 3 2 2
8 8 7 6 6 5 5 5 5 5 4 4 4 4 4 4 3 2 3 3 3 4 4 3 3 2 2 3 3 2 3 3 4 4 4 4 3 3 4 3 3 3 3
8 7 7 6 6 5 5 5 5 5 4 4 4 4 4 2 2 0 3 3 3 4 4 4 4 3 3 3 2 3 3 4 4 4 5 5 4 4 3 3 3 3 3
7 7 7 6 6 6 6 5 5 5 5 4 4 4 4 2 3 2 3 4 4 4 4 4 4 3 4 4 4 5 5 4 4 5 6 5 5 5 5 5 4 5 3
8 7 7 7 7 6 6 6 5 5 5 5 4 4 4 3 4 4 5 6 5 5 5 5 5 4 4 4 5 5 5 5 5 6 5 6 4 3 5 6 5 5 5
7 7 6 7 7 6 6 6 5 5 5 5 5 5 5 4 5 5 6 5 5 6 6 6 6 6 3 3 5 6 5 5 5 4 4 4 3 4 5 5 6 6 5
6 6 5 6 6 6 5 5 5 5 5 5 5 5 6 5 6 6 6 5 5 5 5 5 6 5 4 5 6 6 6 6 5 4 5 6 7 7 9 8 7 7 6
5 5 5 5 5 5 4 4 4 5 5 5 5 5 6 5 5 7 7 5 5 6 5 5 4 6 7 8 8 7 6 5 6 6 5 6 6 6 7 8 7 7 7
5 5 4 4 4 4 4 4 4 5 6 6 5 5 5 5 5 6 9 9 8 7 6 6 4 5 8 9 8 5 5 6 6 6 6 6 5 6 6 6 7 7 7
5 4 4 4 4 4 4 4 5 5 5 5 5 5 4 3 4 8 9 10 10 8 6 4 4 6 7 7 8 8 7 6 6 7 7 6 6 5 5 5 6 7 7
4 4 4 4 5 4 4 4 5 5 5 5 5 5 4 4 4 3 4 5 7 7 6 5 7 8 8 6 6 7 7 6 6 7 7 6 5 5 6 6 6 6 6
4 4 4 4 4 4 4 4 5 4 3 5 5 5 5 5 2 1 4 4 4 4 4 5 5 4 5 5 5 5 6 6 6 7 6 6 6 6 6 5 5 6 7
4 4 4 4 4 4 4 4 3 4 2 4 5 6 5 3 2 3 5 5 4 4 5 6 6 6 6 5 5 5 5 5 6 6 6 6 6 6 6 6 6 7 8
4 4 4 4 4 5 5 5 5 5 7 8 9 9 9 7 6 6 6 6 6 7 6 6 6 6 6 6 6 6 6 5 5 6 6 6 6 6 6 6 6 7 7
4 4 4 5 5 5 5 6 6 6 6 5 7 10 11 10 9 8 7 5 6 6 7 7 6 6 6 6 6 6 6 6 6 6 6 6 6 7 7 7 7 8 7
4 4 4 4 5 5 5 6 6 7 7 6 5 4 9 9 9 9 8 6 7 7 7 7 7 7 6 6 6 6 6 6 6 6 6 7 7 7 7 8 8 8 9
4 5 5 5 5 6 6 6 7 7 7 6 6 5 4 4 5 5 6 7 7 7 7 7 7 7 6 6 6 6 7 7 7 7 7 6 7 7 8 8 8 8 8
4 4 6 7 6 6 6 6 6 6 6 6 6 4 3 5 6 6 6 6 7 7 7 7 7 7 7 6 6 7 8 7 6 7 7 7 7 8 8 8 8 8 8
4 4 5 5 5 5 5 5 5 6 7 7 5 4 5 6 6 6 6 6 6 6 6 6 7 6 6 6 6 6 7 7 6 6 6 7 7 7 7 7 7 7 8
4 4 4 5 5 4 5 5 5 5 5 5 5 4 4 5 5 5 5 5 5 5 5 5 6 6 6 6 6 7 7 7 6 6 6 7 7 7 7 8 8 8 8
4 4 5 4 4 4 4 4 4 4 4 5 5 4 4 4 5 5 5 5 5 5 5 5 6 6 7 6 6 7 6 5 6 6 8 8 8 8 8 7 8 9 9
3 3 4 4 4 4 4 4 4 4 4 4 4 4 4 4 5 5 4 4 5 5 6 6 5 6 7 8 7 6 3 2 5 7 7 8 9 9 8 8 7 8 8
3 3 3 3 3 3 4 4 4 4 4 4 4 4 5 5 5 5 5 5 6 6 6 6 6 7 8 8 7 3 1 3 4 7 8 8 9 9 8 7 9 8 8
Wind_Direction
184 185 189 189 188 187 190 193 193 194 186 191 195 197 198 199 202 210 244 233 252 271 271 264 273 294 291 285 278 273 267 259 258 271 252 215 217 245 188 209 200 194 143
180 181 187 188 188 192 190 192 194 192 193 190 197 201 208 205 207 217 242 244 251 261 267 275 277 275 282 286 286 276 268 260 251 257 246 219 211 212 196 221 218 197 143
178 182 183 188 188 193 195 193 192 192 194 194 196 207 219 220 219 225 237 247 251 253 254 254 264 273 274 288 286 276 263 249 241 239 237 219 216 204 202 209 205 225 207
178 181 180 185 186 186 187 187 190 192 194 197 201 207 214 223 227 235 243 249 254 254 253 255 260 264 263 271 267 270 271 259 240 234 232 220 215 202 212 216 204 198 238
176 180 179 180 181 182 184 187 189 193 196 196 201 201 206 212 219 237 247 246 250 255 254 254 258 269 304 289 286 283 270 261 246 236 233 232 223 210 218 222 223 210 209
175 177 175 179 182 186 188 189 189 190 196 197 201 205 209 207 106 8 272 250 248 250 254 251 240 219 212 225 281 310 303 268 267 261 247 240 234 230 226 230 227 229 230
170 174 174 180 186 192 194 189 190 195 197 200 206 208 206 176 140 184 262 258 251 253 254 253 252 232 217 225 215 222 242 256 265 266 267 262 244 227 228 232 235 248 253
168 172 177 187 191 193 195 194 194 200 204 205 206 205 205 187 174 205 240 242 250 250 249 249 251 253 241 242 240 238 240 234 234 245 258 265 265 249 231 238 234 233 237
173 178 182 189 191 194 196 196 195 198 202 206 206 209 211 203 193 209 240 244 241 246 247 245 245 244 222 241 242 241 246 246 231 231 255 262 272 254 243 236 229 228 233
172 179 185 191 192 195 196 197 198 201 209 214 211 217 220 223 198 203 231 248 247 248 242 237 231 237 214 218 237 242 244 248 252 240 227 228 231 225 222 231 236 237 239
165 165 175 186 191 194 195 199 204 210 213 223 223 225 228 230 203 196 215 243 254 253 252 248 234 188 210 222 239 242 247 255 249 245 239 233 229 227 222 225 238 247 248
160 164 168 177 193 188 196 207 213 216 214 217 224 235 231 225 219 204 207 230 261 258 258 259 248 195 216 226 234 239 239 245 246 246 245 242 240 236 231 230 234 246 261
167 172 174 182 199 199 202 209 215 219 230 230 231 239 244 237 211 196 207 222 239 251 261 269 256 221 223 228 224 224 227 237 241 245 246 244 244 243 239 232 230 235 243
179 184 186 194 201 202 219 222 227 229 236 240 243 250 257 249 250 232 230 229 229 242 259 245 221 220 231 242 226 221 235 240 243 249 253 252 248 239 237 237 234 228 233
186 193 205 211 208 208 217 232 238 241 252 255 260 261 266 265 273 293 257 245 250 255 260 255 251 241 235 238 239 237 239 236 240 247 251 253 251 247 246 241 239 239 240
197 206 218 221 220 227 225 229 225 241 213 231 257 268 267 266 228 231 251 255 242 234 241 246 248 248 248 247 248 247 244 247 249 246 245 248 249 249 248 245 242 242 244
218 225 235 236 230 233 236 241 246 234 221 228 231 235 243 254 245 239 239 242 234 214 232 246 250 252 254 254 253 255 254 251 250 248 246 248 250 251 250 248 244 245 248
225 227 235 240 241 242 245 250 253 255 254 252 232 221 223 228 232 234 228 228 239 222 241 249 253 252 252 254 257 259 261 257 247 246 247 249 249 250 251 250 246 245 246
235 239 239 245 246 248 251 254 258 260 262 262 262 231 208 214 218 222 208 229 246 247 247 250 254 257 257 257 257 258 259 256 254 253 253 253 253 253 254 253 251 243 245
234 228 236 248 250 250 253 257 259 259 259 260 259 261 237 231 251 239 227 240 248 251 249 247 249 254 257 257 253 250 253 252 250 250 255 257 256 257 258 259 259 255 249
252 234 222 245 254 257 261 262 263 263 263 264 263 262 246 252 256 255 252 250 252 254 252 250 249 248 249 251 253 253 255 256 254 255 256 256 258 258 258 257 255 252 252
262 258 253 255 256 256 261 264 264 266 267 268 272 252 206 241 256 257 256 258 258 256 255 254 254 251 252 254 255 255 257 258 260 262 262 260 260 260 258 254 253 254 253
264 262 258 258 259 251 251 258 265 271 274 276 276 272 258 262 266 267 266 266 265 262 260 260 262 263 260 256 253 252 257 258 257 260 261 260 260 259 257 254 253 255 254
263 265 265 263 265 267 267 271 275 279 280 279 279 277 273 270 269 268 270 274 272 270 267 265 263 266 270 272 268 259 261 272 271 262 260 263 263 262 258 256 255 256 256
274 269 273 275 276 279 282 284 284 283 283 284 282 275 271 271 270 268 267 268 269 268 270 269 268 266 268 268 270 275 301 293 274 275 266 261 262 264 263 260 258 258 255
296 298 296 296 301 303 300 296 290 291 292 292 287 283 281 278 277 279 279 277 275 270 269 268 271 272 273 268 270 289 275 257 257 264 266 259 260 259 261 260 261 257 254
Height
1523 1525 1527 1528 1529 1530 1531 1532 1533 1534 1534 1534 1535 1535 1536 1536 1536 1535 1536 1536 1536 1536 1536 1536 1535 1535 1535 1535 1535 1534 1534 1534 1533 1533 1533 1532 1531 1531 1531 1531 1531 1530 1529
1521 1522 1524 1525 1527 1528 1529 1530 1531 1531 1532 1533 1533 1534 1534 1534 1534 1534 1534 1534 1534 1534 1534 1533 1533 1533 1533 1533 1532 1532 1531 1531 1531 1530 1530 1530 1529 1529 1528 1528 1529 1529 1528
1518 1520 1522 1523 1524 1525 1527 1528 1528 1529 1530 1530 1531 1531 1532 1532 1532 1532 1532 1532 1532 1532 1532 1531 1531 1531 1530 1530 1530 1529 1529 1528 1528 1528 1527 1527 1527 1527 1526 1526 1526 1526 1526
1516 1518 1519 1521 1522 1523 1524 1525 1526 1527 1527 1528 1529 1529 1529 1530 1530 1530 1530 1530 1530 1530 1529 1529 1529 1529 1528 1528 1527 1526 1526 1525 1525 1525 1525 1525 1524 1524 1524 1525 1524 1524 1524
1513 1515 1516 1518 1520 1521 1522 1523 1524 1524 1526 1526 1526 1527 1527 1528 1528 1528 1528 1528 1528 1527 1527 1527 1526 1526 1525 1525 1525 1524 1524 1523 1523 1523 1522 1522 1522 1522 1522 1522 1523 1522 1521
1511 1513 1514 1516 1518 1519 1520 1521 1522 1522 1523 1523 1524 1524 1525 1525 1525 1525 1526 1526 1525 1525 1525 1524 1524 1523 1523 1522 1522 1521 1521 1521 1520 1520 1520 1520 1519 1519 1519 1520 1520 1520 1520
1508 1510 1512 1513 1515 1516 1518 1519 1520 1520 1520 1521 1521 1522 1522 1522 1522 1522 1522 1523 1523 1522 1522 1522 1522 1521 1520 1520 1519 1518 1518 1517 1517 1517 1517 1517 1517 1516 1516 1517 1517 1517 1517
1506 1508 1509 1511 1512 1514 1515 1515 1517 1517 1518 1518 1519 1519 1519 1519 1519 1519 1519 1519 1519 1519 1519 1518 1518 1518 1517 1517 1516 1516 1515 1514 1514 1514 1514 1513 1514 1513 1513 1513 1513 1513 1513
1504 1506 1507 1509 1510 1511 1512 1513 1514 1514 1515 1515 1516 1516 1516 1516 1516 1516 1516 1516 1515 1515 1515 1515 1514 1514 1513 1513 1513 1512 1512 1511 1511 1510 1510 1510 1509 1509 1509 1510 1510 1510 1510
1501 1503 1505 1506 1507 1508 1509 1510 1511 1511 1512 1512 1513 1512 1512 1512 1512 1512 1512 1512 1512 1512 1511 1511 1510 1510 1510 1509 1509 1509 1508 1508 1508 1507 1506 1506 1505 1505 1505 1506 1506 1507 1507
1499 1501 1503 1504 1505 1506 1507 1507 1508 1508 1509 1509 1509 1509 1509 1509 1508 1508 1508 1508 1508 1508 1508 1508 1507 1506 1505 1505 1505 1505 1505 1504 1504 1503 1503 1502 1502 1502 1501 1502 1502 1503 1503
1497 1498 1500 1501 1503 1504 1504 1505 1505 1506 1506 1506 1506 1506 1506 1506 1505 1505 1505 1504 1504 1504 1504 1504 1503 1502 1502 1501 1501 1501 1500 1500 1500 1500 1500 1499 1498 1498 1498 1497 1497 1497 1497
1496 1496 1497 1498 1500 1501 1502 1502 1503 1503 1504 1504 1504 1504 1504 1503 1502 1501 1500 1500 1500 1500 1500 1499 1499 1498 1497 1497 1497 1497 1496 1496 1496 1496 1495 1495 1494 1494 1493 1493 1492 1492 1492
1493 1494 1495 1496 1497 1498 1499 1500 1500 1501 1501 1501 1500 1500 1500 1499 1498 1497 1497 1496 1496 1496 1495 1495 1494 1494 1493 1493 1493 1493 1492 1492 1492 1492 1491 1491 1490 1489 1489 1489 1488 1488 1488
1491 1492 1493 1494 1494 1495 1495 1496 1497 1497 1497 1497 1497 1497 1496 1495 1495 1494 1493 1492 1492 1492 1491 1491 1491 1490 1489 1489 1489 1488 1488 1488 1487 1487 1487 1486 1485 1485 1485 1485 1484 1484 1484
1488 1489 1490 1491 1492 1492 1492 1492 1492 1492 1492 1492 1492 1492 1491 1491 1490 1489 1489 1488 1487 1487 1487 1486 1486 1486 1485 1485 1484 1484 1483 1483 1483 1483 1482 1481 1481 1481 1480 1480 1480 1479 1479
1486 1487 1488 1488 1488 1488 1488 1488 1488 1488 1488 1487 1487 1487 1486 1486 1485 1485 1484 1484 1483 1483 1482 1482 1481 1481 1480 1480 1480 1479 1479 1479 1478 1478 1477 1477 1476 1476 1476 1475 1475 1475 1474
1482 1484 1484 1484 1485 1485 1485 1485 1485 1485 1484 1483 1482 1482 1481 1481 1480 1480 1480 1479 1478 1477 1477 1477 1477 1476 1476 1475 1475 1475 1475 1474 1474 1473 1473 1472 1472 1471 1471 1470 1470 1469 1469
1480 1480 1481 1481 1481 1481 1481 1481 1481 1481 1480 1479 1478 1477 1476 1476 1475 1475 1474 1474 1473 1473 1473 1472 1472 1471 1471 1470 1470 1470 1470 1469 1468 1468 1468 1467 1467 1466 1466 1465 1464 1464 1463
1476 1477 1477 1478 1478 1477 1477 1477 1477 1476 1476 1475 1474 1473 1473 1472 1471 1470 1470 1469 1469 1469 1468 1467 1467 1467 1466 1466 1465 1465 1464 1464 1463 1463 1463 1462 1462 1461 1460 1460 1459 1459 1458
1474 1474 1473 1474 1474 1474 1473 1473 1472 1472 1471 1470 1470 1469 1468 1468 1467 1466 1466 1465 1464 1464 1463 1462 1462 1462 1461 1461 1460 1459 1459 1459 1458 1458 1457 1457 1456 1456 1455 1455 1454 1454 1453
1471 1470 1470 1470 1470 1469 1469 1469 1468 1467 1467 1466 1466 1465 1463 1463 1463 1462 1461 1461 1460 1459 1458 1458 1457 1457 1456 1456 1455 1454 1454 1453 1453 1452 1452 1451 1451 1450 1450 1449 1448 1448 1448
1467 1467 1467 1466 1466 1465 1465 1465 1464 1463 1463 1462 1462 1461 1460 1459 1458 1457 1457 1456 1455 1454 1453 1452 1452 1451 1451 1450 1449 1449 1448 1447 1447 1446 1446 1446 1445 1445 1444 1444 1443 1442 1442
1464 1464 1464 1463 1463 1462 1462 1461 1460 1459 1459 1458 1457 1456 1455 1454 1453 1452 1452 1451 1450 1449 1448 1447 1446 1446 1445 1444 1444 1444 1443 1442 1441 1441 1440 1440 1439 1439 1439 1438 1437 1437 1437
1462 1462 1461 1460 1460 1459 1458 1458 1457 1456 1455 1454 1453 1452 1451 1450 1449 1448 1447 1446 1445 1444 1443 1442 1441 1440 1439 1439 1438 1438 1437 1436 1435 1435 1434 1434 1433 1433 1432 1432 1432 1431 1431
1460 1460 1459 1458 1457 1456 1455 1455 1454 1453 1452 1451 1450 1449 1448 1447 1445 1444 1443 1442 1441 1439 1438 1437 1436 1435 1434 1433 1432 1432 1431 1430 1429 1429 1428 1428 1428 1427 1427 1426 1426 1425 1425